CW3467 Weather Reports


time (UTC)temp
F
wind
direction
speed
knots
gust
knots
rain 1hr
in
rain 24hr
in
rain mn
in
humidity
%
barometer
mb
20260507213505 50 18 0.9 5.2 0.21 0.53 0.53 100 1015.5
20260507213026 50 271 0.9 5.2 0.28 0.52 0.52 100 1015.6
20260507212505 50 249 0.0 2.6 0.38 0.51 0.51 100 1015.4
20260507212005 51 246 0.0 2.6 0.39 0.50 0.50 100 1015.5
20260507211505 51 205 0.0 0.9 0.46 0.49 0.49 100 1015.4
20260507211005 50 226 0.0 1.7 0.49 0.49 0.49 100 1015.3
20260507210505 50 230 0.0 1.7 0.48 0.48 0.48 100 1015.2
20260507210005 50 243 0.9 1.7 0.47 0.47 0.47 100 1015.1
20260507205505 49 247 0.9 1.7 0.46 0.46 0.46 100 1014.9
20260507205005 50 245 0.9 2.6 0.45 0.45 0.45 100 1014.9
20260507204505 49 250 0.9 2.6 0.43 0.43 0.43 97 1014.8
20260507204005 49 253 1.7 3.5 0.38 0.38 0.38 97 1014.7
20260507203505 49 249 1.7 3.5 0.32 0.32 0.32 97 1014.8
20260507203005 49 256 2.6 6.1 0.24 0.24 0.24 96 1014.5
20260507202505 50 256 2.6 7.8 0.13 0.13 0.14 95 1014.6
20260507202005 51 255 3.5 7.8 0.11 0.11 0.11 92 1014.1
20260507201505 53 260 2.6 6.1 0.03 0.03 0.03 87 1014.1
20260507201005 57 291 3.5 7.8 0.00 0.00 0.00 71 1013.6
20260507200526 57 298 4.3 7.8 0.00 0.00 0.00 65 1013.5
20260507200005 58 284 2.6 7.8 0.00 0.00 0.00 66 1013.2
20260507195505 59 255 1.7 5.2 0.00 0.00 0.00 68 1013.4
20260507195005 59 253 1.7 3.5 0.00 0.00 0.00 68 1013.1
20260507194505 59 252 1.7 6.1 0.00 0.00 0.00 70 1013.1
20260507194005 59 270 2.6 6.1 0.00 0.00 0.00 70 1013.2
20260507193505 59 317 3.5 11.3 0.00 0.00 0.00 70 1013.0
20260507193005 60 320 5.2 11.3 0.00 0.00 0.00 70 1013.1
20260507192505 60 298 4.3 7.8 0.00 0.00 0.00 71 1012.7
20260507192005 60 302 4.3 11.3 0.00 0.00 0.00 70 1012.7
20260507191526 60 318 3.5 11.3 0.00 0.00 0.00 68 1012.6
20260507191005 61 311 3.5 9.6 0.00 0.00 0.00 66 1012.4
20260507190505 61 284 2.6 9.6 0.00 0.00 0.00 63 1012.5
20260507190006 61 279 2.6 7.0 0.00 0.00 0.00 62 1012.2
20260507185525 61 282 2.6 6.1 0.00 0.00 0.00 62 1012.3
20260507185004 61 272 1.7 5.2 0.00 0.00 0.00 63 1012.2
20260507184505 61 265 1.7 5.2 0.00 0.00 0.00 62 1012.2
20260507184004 61 258 0.9 1.7 0.00 0.00 0.00 60 1012.1
20260507183505 62 203 0.0 1.7 0.00 0.00 0.00 57 1011.9
20260507183005 62 133 0.9 3.5 0.00 0.00 0.00 54 1012.0
20260507182505 63 96 0.9 3.5 0.00 0.00 0.00 51 1011.9
20260507182026 63 141 0.9 2.6 0.00 0.00 0.00 53 1011.9
20260507181525 63 59 0.9 3.5 0.00 0.00 0.00 53 1011.6
20260507181005 63 308 0.9 6.1 0.00 0.00 0.00 53 1011.7
20260507180505 63 311 2.6 9.6 0.00 0.00 0.00 55 1011.7
20260507180026 64 315 3.5 9.6 0.00 0.00 0.00 55 1011.6
20260507175505 65 291 2.6 7.0 0.00 0.00 0.00 59 1011.6
20260507175004 65 279 1.7 5.2 0.00 0.00 0.00 61 1011.4
20260507174505 66 261 0.9 5.2 0.00 0.00 0.00 59 1011.7
20260507174004 66 277 1.7 7.0 0.00 0.00 0.00 56 1011.4
20260507173504 65 279 1.7 7.0 0.00 0.00 0.00 55 1011.4
20260507173005 65 253 0.9 3.5 0.00 0.00 0.00 54 1011.4
20260507172505 66 235 0.9 3.5 0.00 0.00 0.00 52 1011.3
20260507172005 67 65 0.9 3.5 0.00 0.00 0.00 53 1011.2
20260507171505 66 43 0.9 3.5 0.00 0.00 0.00 50 1011.2
20260507171005 67 119 0.9 3.5 0.00 0.00 0.00 50 1011.0
20260507170505 67 206 0.9 3.5 0.00 0.00 0.00 50 1010.9
20260507170005 65 232 0.0 1.7 0.00 0.00 0.00 53 1010.8
20260507165505 65 251 0.9 3.5 0.00 0.00 0.00 50 1011.0
20260507165004 65 263 0.9 3.5 0.00 0.00 0.00 51 1010.8
20260507164504 65 91 0.9 3.5 0.00 0.00 0.00 54 1010.8
20260507164004 65 109 0.9 3.5 0.00 0.00 0.00 53 1010.8
20260507163504 65 66 0.9 3.5 0.00 0.00 0.00 51 1010.9
20260507163005 66 57 0.9 3.5 0.00 0.00 0.00 50 1010.9
20260507162525 66 64 0.9 3.5 0.00 0.00 0.00 51 1010.6
20260507162005 67 60 0.9 3.5 0.00 0.00 0.00 52 1010.8
20260507161504 66 65 0.0 1.7 0.00 0.00 0.00 54 1010.7
20260507161004 65 59 0.9 2.6 0.00 0.00 0.00 51 1010.6
20260507160514 65 52 0.9 2.6 0.00 0.00 0.00 51 1010.8
20260507160008 65 52 0.9 3.5 0.00 0.00 0.00 53 1010.6
20260507155505 65 55 0.9 3.5 0.00 0.00 0.00 51 1010.8
20260507155026 66 73 0.9 3.5 0.00 0.00 0.00 50 1010.8
20260507154505 67 66 0.9 3.5 0.00 0.00 0.00 47 1010.5
20260507154005 67 47 0.9 3.5 0.00 0.00 0.00 48 1010.6
20260507153505 67 59 0.9 2.6 0.00 0.00 0.00 47 1010.5
20260507153004 67 59 0.9 3.5 0.00 0.00 0.00 45 1010.7
20260507152504 69 29 0.9 3.5 0.00 0.00 0.00 44 1010.7
20260507152025 71 314 0.9 3.5 0.00 0.00 0.00 44 1010.6
20260507151505 71 359 1.7 7.0 0.00 0.00 0.00 44 1010.9
20260507151025 69 37 1.7 7.0 0.00 0.00 0.00 41 1011.0
20260507150504 70 53 1.7 7.0 0.00 0.00 0.00 42 1011.0
20260507150005 69 50 1.7 7.0 0.00 0.00 0.00 44 1011.0
20260507145504 69 43 1.7 6.1 0.00 0.00 0.00 43 1011.2
20260507145005 69 32 1.7 6.1 0.00 0.00 0.00 44 1011.0
20260507144505 71 31 1.7 7.8 0.00 0.00 0.00 46 1011.2
20260507144005 69 41 2.6 7.8 0.00 0.00 0.00 43 1011.2
20260507143504 69 50 1.7 7.0 0.00 0.00 0.00 44 1011.4
20260507143005 69 240 0.9 5.2 0.00 0.00 0.00 46 1011.4
20260507142525 70 11 1.7 6.1 0.00 0.00 0.00 45 1011.4
20260507142004 69 31 1.7 6.1 0.00 0.00 0.00 46 1011.3
20260507141526 68 357 1.7 7.0 0.00 0.00 0.00 43 1011.6
20260507141006 69 314 2.6 7.0 0.00 0.00 0.00 46 1011.6
20260507140504 69 312 2.6 7.0 0.00 0.00 0.00 46 1011.4
20260507140006 69 27 2.6 8.7 0.00 0.00 0.00 46 1011.6
20260507135504 68 31 2.6 8.7 0.00 0.00 0.00 49 1011.4
20260507135004 69 11 2.6 9.6 0.00 0.00 0.00 46 1011.6
20260507134504 69 351 2.6 9.6 0.00 0.00 0.00 49 1011.8
20260507134004 70 31 2.6 8.7 0.00 0.00 0.00 48 1011.8
20260507133504 69 50 2.6 9.6 0.00 0.00 0.00 49 1012.0
20260507133004 69 48 2.6 9.6 0.00 0.00 0.00 49 1012.0
20260507132504 69 48 1.7 7.8 0.00 0.00 0.00 50 1011.9
20260507132004 69 45 2.6 7.8 0.00 0.00 0.00 46 1011.9
20260507131504 68 45 2.6 7.0 0.00 0.00 0.00 46 1012.0
20260507131004 68 40 1.7 7.0 0.00 0.00 0.00 45 1012.2
20260507130505 69 3 1.7 7.0 0.00 0.00 0.00 49 1012.1
20260507130005 69 295 1.7 5.2 0.00 0.00 0.00 46 1012.2
20260507125505 69 284 1.7 6.1 0.00 0.00 0.00 45 1012.3
20260507125004 69 310 2.6 7.0 0.00 0.00 0.00 45 1012.2
20260507124504 67 308 2.6 7.0 0.00 0.00 0.00 44 1012.4
20260507124004 68 298 2.6 7.8 0.00 0.00 0.00 49 1012.4
20260507123504 67 298 1.7 7.8 0.00 0.00 0.00 49 1012.3
20260507123005 69 301 0.9 7.0 0.00 0.00 0.00 45 1012.4
20260507122504 68 349 1.7 7.8 0.00 0.00 0.00 49 1012.5
20260507122005 68 17 1.7 7.8 0.00 0.00 0.00 48 1012.4
20260507121504 67 321 1.7 6.1 0.00 0.00 0.00 51 1012.6
20260507121004 69 300 1.7 6.1 0.00 0.00 0.00 50 1012.7
20260507120525 68 308 1.7 6.1 0.00 0.00 0.00 49 1012.9
20260507120005 66 291 1.7 7.0 0.00 0.00 0.00 51 1012.7
20260507115504 68 279 1.7 7.0 0.00 0.00 0.00 47 1012.9
20260507115004 68 267 0.9 3.5 0.00 0.00 0.00 52 1012.9
20260507114504 68 355 0.9 5.2 0.00 0.00 0.00 52 1013.1
20260507114004 66 50 1.7 5.2 0.00 0.00 0.00 51 1013.1
20260507113504 67 345 1.7 6.1 0.00 0.00 0.00 52 1013.2
20260507113005 68 284 1.7 6.1 0.00 0.00 0.00 52 1013.4
20260507112504 67 276 1.7 7.0 0.00 0.00 0.00 53 1013.5
20260507112004 65 352 1.7 7.0 0.00 0.00 0.00 54 1013.4
20260507111506 66 50 1.7 6.1 0.00 0.00 0.00 50 1013.6
20260507111004 64 52 1.7 6.1 0.00 0.00 0.00 53 1013.4
20260507110525 65 340 1.7 7.0 0.00 0.00 0.00 54 1013.5
20260507110005 66 284 1.7 7.0 0.00 0.00 0.00 53 1013.8
20260507105504 67 274 0.9 5.2 0.00 0.00 0.00 50 1013.8
20260507105004 65 277 0.9 5.2 0.00 0.00 0.00 55 1013.8
20260507104505 65 279 1.7 3.5 0.00 0.00 0.00 53 1013.8
20260507104004 65 279 1.7 7.8 0.00 0.00 0.00 54 1014.0
20260507103525 64 269 1.7 7.8 0.00 0.00 0.00 59 1014.0
20260507103004 65 277 1.7 5.2 0.00 0.00 0.00 56 1013.8
20260507102504 65 291 0.9 5.2 0.00 0.00 0.00 55 1013.9
20260507102006 64 267 0.9 5.2 0.00 0.00 0.00 54 1014.0
20260507101504 64 275 1.7 5.2 0.00 0.00 0.00 56 1014.1
20260507101004 64 279 0.9 3.5 0.00 0.00 0.00 53 1014.2
20260507100504 63 262 0.9 3.5 0.00 0.00 0.00 60 1014.1
20260507100005 63 271 0.9 3.5 0.00 0.00 0.00 54 1014.1
20260507095504 62 86 0.9 3.5 0.00 0.00 0.00 57 1014.2
20260507095004 61 238 0.9 2.6 0.00 0.00 0.00 62 1014.3
20260507094504 61 196 0.9 1.7 0.00 0.00 0.00 63 1014.5
20260507094004 61 79 0.9 2.6 0.00 0.00 0.00 66 1014.3
20260507093525 60 43 0.9 2.6 0.00 0.00 0.00 66 1014.7
20260507093004 60 294 0.9 2.6 0.00 0.00 0.00 67 1014.6
20260507092525 61 273 0.9 2.6 0.00 0.00 0.00 67 1014.7
20260507092004 61 266 0.9 2.6 0.00 0.00 0.00 65 1014.8
20260507091504 60 288 0.9 2.6 0.00 0.00 0.00 69 1014.5
20260507091004 59 327 0.9 3.5 0.00 0.00 0.00 67 1014.5
20260507090504 59 305 0.9 3.5 0.00 0.00 0.00 67 1014.5
20260507090005 60 350 0.9 3.5 0.00 0.00 0.00 66 1014.6
20260507085504 58 40 0.9 2.6 0.00 0.00 0.00 70 1014.7
20260507085004 59 252 0.9 1.7 0.00 0.00 0.00 68 1014.7
20260507084504 58 257 0.9 1.7 0.00 0.00 0.00 70 1014.6
20260507084004 58 256 0.9 1.7 0.00 0.00 0.00 71 1014.7
20260507083504 56 253 0.9 1.7 0.00 0.00 0.00 71 1014.6
20260507083025 57 252 0.9 1.7 0.00 0.00 0.00 73 1014.8
20260507082525 56 266 0.9 2.6 0.00 0.00 0.00 75 1014.6
20260507082004 56 273 0.9 3.5 0.00 0.00 0.00 76 1014.6
20260507081504 55 28 0.9 3.5 0.00 0.00 0.00 79 1014.5
20260507081004 55 292 0.9 2.6 0.00 0.00 0.00 78 1014.5
20260507080504 55 258 0.9 2.6 0.00 0.00 0.00 79 1014.7
20260507080025 54 251 0.9 1.7 0.00 0.00 0.00 79 1014.7
20260507075504 54 255 0.9 1.7 0.00 0.00 0.00 79 1014.9
20260507075025 54 248 0.0 1.7 0.00 0.00 0.00 80 1014.7
20260507074504 53 251 0.9 1.7 0.00 0.00 0.00 80 1014.9
20260507074004 53 254 0.9 1.7 0.00 0.00 0.00 80 1014.7
20260507073504 52 251 0.9 1.7 0.00 0.00 0.00 80 1014.8
20260507073025 53 242 0.0 1.7 0.00 0.00 0.00 80 1015.0
20260507072504 54 235 0.0 0.9 0.00 0.00 0.00 78 1014.7
20260507072004 51 247 0.0 1.7 0.00 0.00 0.00 82 1014.8
20260507071504 51 243 0.0 1.7 0.00 0.00 0.00 84 1015.1
20260507071004 52 236 0.0 1.7 0.00 0.00 0.00 82 1015.1
20260507070504 51 240 0.0 1.7 0.00 0.00 0.00 83 1015.1
20260507070009 50 239 0.0 0.9 0.00 0.00 0.00 83 1014.8
20260507065504 51 239 0.0 0.9 0.00 0.00 0.00 82 1015.0
20260507065004 49 238 0.0 0.9 0.00 0.00 0.00 85 1014.7
20260507064504 49 235 0.0 0.9 0.00 0.00 0.00 88 1014.7
20260507064025 48 240 0.0 0.9 0.00 0.00 0.00 89 1015.0
20260507063504 47 244 0.0 0.9 0.00 0.00 0.00 90 1014.8
20260507063004 46 241 0.0 0.9 0.00 0.00 0.00 92 1014.7
20260507062504 46 243 0.0 0.9 0.00 0.00 0.00 93 1014.8
20260507062025 45 244 0.0 0.9 0.00 0.00 0.00 93 1014.8
20260507061504 45 237 0.0 0.9 0.00 0.00 0.00 93 1014.9
20260507061004 45 235 0.0 0.9 0.00 0.00 0.00 94 1014.7
20260507060505 44 231 0.0 0.9 0.00 0.00 0.00 93 1014.6
20260507060004 44 0 0.0 0.0 0.00 0.00 0.00 93 1014.3
20260507055504 44 220 0.0 0.9 0.00 0.00 0.00 93 1014.3
20260507055004 44 224 0.0 1.7 0.00 0.00 0.00 93 1014.3
20260507054504 44 224 0.0 1.7 0.00 0.00 0.00 93 1014.3
20260507054025 44 225 0.0 0.9 0.00 0.00 0.00 94 1014.5
20260507053525 44 236 0.0 0.9 0.00 0.00 0.00 94 1014.6
20260507053005 44 238 0.0 0.9 0.00 0.00 0.00 94 1014.3
20260507052504 44 234 0.0 0.9 0.00 0.00 0.00 93 1014.2
20260507052004 44 226 0.0 0.9 0.00 0.00 0.00 93 1014.5
20260507051525 44 225 0.0 0.9 0.00 0.00 0.00 93 1014.1
20260507051004 44 222 0.0 1.7 0.00 0.00 0.00 92 1014.2
20260507050504 44 221 0.0 1.7 0.00 0.00 0.00 92 1014.2
20260507050025 44 222 0.0 0.9 0.00 0.00 0.00 93 1014.3
20260507045504 44 223 0.0 0.9 0.00 0.00 0.00 92 1014.1
20260507045004 44 222 0.9 0.9 0.00 0.00 0.00 92 1014.1
20260507044525 44 222 0.9 0.9 0.00 0.00 0.00 92 1013.9
20260507044025 44 224 0.0 0.9 0.00 0.00 0.00 92 1013.9
20260507043504 44 225 0.0 0.9 0.00 0.00 0.00 92 1014.1
20260507043004 45 224 0.0 0.9 0.00 0.00 0.00 92 1014.0
20260507042504 45 225 0.0 0.9 0.00 0.00 0.00 92 1013.9
20260507042004 45 225 0.0 0.9 0.00 0.00 0.00 92 1014.0
20260507041504 45 223 0.0 0.9 0.00 0.00 0.00 91 1013.9
20260507041004 45 222 0.9 1.7 0.00 0.00 0.00 91 1014.0
20260507040504 45 222 0.9 1.7 0.00 0.00 0.00 91 1013.9
20260507040025 45 222 0.0 1.7 0.00 0.00 0.00 92 1013.9
20260507035504 45 223 0.0 0.9 0.00 0.00 0.00 91 1013.9
20260507035004 45 224 0.9 0.9 0.00 0.00 0.00 92 1013.8
20260507034504 45 225 0.9 0.9 0.00 0.00 0.00 92 1014.0
20260507034004 45 223 0.9 0.9 0.00 0.00 0.00 92 1013.8
20260507033504 46 223 0.9 0.9 0.00 0.00 0.00 91 1014.2
20260507033025 45 225 0.0 0.9 0.00 0.00 0.00 92 1014.0
20260507032504 46 221 0.0 0.9 0.00 0.00 0.00 90 1013.9
20260507032025 46 223 0.0 0.9 0.00 0.00 0.00 90 1014.0
20260507031504 46 224 0.0 0.9 0.00 0.00 0.00 91 1014.1
20260507031004 46 221 0.0 0.9 0.00 0.00 0.00 91 1014.0
20260507030504 46 0 0.0 0.0 0.00 0.00 0.00 91 1014.1
20260507030025 46 0 0.0 0.0 0.00 0.00 0.00 91 1014.0
20260507025504 46 223 0.0 1.7 0.00 0.00 0.00 90 1014.2
20260507025004 46 223 0.0 1.7 0.00 0.00 0.00 91 1014.2
20260507024504 46 224 0.0 0.9 0.00 0.00 0.00 91 1014.0
20260507024004 46 225 0.0 0.9 0.00 0.00 0.00 92 1014.0
20260507023504 46 223 0.0 0.9 0.00 0.00 0.00 91 1013.9
20260507023004 46 221 0.0 0.9 0.00 0.00 0.00 91 1014.1
20260507022504 47 221 0.9 0.9 0.00 0.00 0.00 90 1014.1
20260507022025 46 222 0.0 0.9 0.00 0.00 0.00 90 1014.0
20260507021504 46 224 0.0 0.9 0.00 0.00 0.00 90 1013.9
20260507021004 46 230 0.0 0.9 0.00 0.00 0.00 90 1013.9
20260507020504 47 230 0.0 0.9 0.00 0.00 0.00 90 1013.9
20260507020025 47 232 0.0 0.9 0.00 0.00 0.00 89 1013.9
20260507015504 47 239 0.0 0.9 0.00 0.00 0.00 89 1013.9
20260507015025 47 235 0.0 0.9 0.00 0.00 0.00 89 1013.7
20260507014504 47 224 0.0 1.7 0.00 0.00 0.00 89 1013.8
20260507014004 47 223 0.9 1.7 0.00 0.00 0.00 89 1013.8
20260507013525 47 224 0.9 0.9 0.00 0.00 0.00 89 1013.8
20260507013004 47 225 0.0 0.9 0.00 0.00 0.00 89 1013.8
20260507012504 47 225 0.9 1.7 0.00 0.00 0.00 89 1013.9
20260507012004 47 225 0.9 1.7 0.00 0.00 0.00 88 1014.1
20260507011525 47 224 0.0 0.9 0.00 0.00 0.00 88 1014.1
20260507011004 47 224 0.9 1.7 0.00 0.00 0.00 88 1014.2
20260507010504 47 221 0.9 1.7 0.00 0.00 0.00 89 1014.1
20260507010005 47 220 0.9 1.7 0.00 0.00 0.00 89 1014.2
20260507005505 47 223 0.9 1.7 0.00 0.00 0.00 89 1013.9
20260507005005 47 226 0.9 1.7 0.00 0.00 0.00 89 1014.1
20260507004505 48 225 0.9 1.7 0.00 0.00 0.00 88 1014.1
20260507004005 48 219 0.0 1.7 0.00 0.00 0.00 87 1014.5
20260507003505 48 220 0.0 0.9 0.00 0.00 0.00 87 1014.1
20260507003005 48 223 0.0 0.9 0.00 0.00 0.00 87 1014.3
20260507002505 48 225 0.0 0.9 0.00 0.00 0.00 88 1014.2
20260507002005 48 223 0.0 0.9 0.00 0.00 0.00 88 1014.1
20260507001526 48 223 0.0 0.9 0.00 0.00 0.00 88 1014.1
20260507001005 48 225 0.0 0.9 0.00 0.00 0.00 88 1014.3
20260507000505 49 223 0.0 0.9 0.00 0.00 0.00 87 1014.0
20260507000005 49 224 0.0 0.9 0.00 0.00 0.00 88 1014.1
20260506235505 49 227 0.0 0.9 0.00 0.00 0.00 88 1014.2
20260506235004 49 228 0.0 0.9 0.00 0.00 0.00 88 1014.1
20260506234505 49 0 0.0 0.0 0.00 0.00 0.00 87 1014.2
20260506234004 50 0 0.0 0.0 0.00 0.00 0.00 86 1013.9
20260506233505 49 0 0.0 0.0 0.00 0.00 0.00 86 1014.0
20260506233005 50 247 0.0 0.9 0.00 0.00 0.00 86 1014.0
20260506232526 50 247 0.0 0.9 0.00 0.00 0.00 86 1014.1
20260506232004 50 0 0.0 0.0 0.00 0.00 0.00 87 1014.0
20260506231505 50 0 0.0 0.0 0.00 0.00 0.00 87 1013.8
20260506231005 50 270 0.9 1.7 0.00 0.00 0.00 87 1013.9
20260506230504 50 261 0.9 1.7 0.00 0.00 0.00 86 1013.9
20260506230005 51 248 0.0 1.7 0.00 0.00 0.00 84 1013.9
20260506225505 51 187 0.0 0.9 0.00 0.00 0.00 84 1013.7
20260506225005 51 197 0.0 0.9 0.00 0.00 0.00 82 1013.8
20260506224505 51 222 0.0 0.9 0.00 0.00 0.00 83 1013.5
20260506224005 50 230 0.0 0.9 0.00 0.00 0.00 84 1013.8
20260506223505 50 228 0.0 0.9 0.00 0.00 0.00 84 1013.7
20260506223005 50 227 0.0 0.9 0.00 0.00 0.00 84 1013.6
20260506222504 50 225 0.9 1.7 0.00 0.00 0.00 83 1013.6
20260506222025 51 231 0.9 1.7 0.00 0.00 0.00 83 1013.7
20260506221505 51 255 0.0 1.7 0.00 0.00 0.00 83 1013.5
20260506221005 51 236 0.0 0.9 0.00 0.00 0.00 82 1013.6
20260506220525 51 230 0.0 1.7 0.00 0.00 0.00 81 1013.6
20260506220026 51 226 0.0 1.7 0.00 0.00 0.00 81 1013.7
20260506215504 51 223 0.0 0.9 0.00 0.00 0.00 81 1013.5
20260506215006 51 222 0.0 0.9 0.00 0.00 0.00 81 1013.6
20260506214505 51 233 0.0 0.9 0.00 0.00 0.00 81 1013.5
20260506214005 51 232 0.0 0.9 0.00 0.00 0.00 81 1013.7